San Francisco, CA

1:01 AM PDT on March 30, 2017 (GMT -0700)
San Francisco International

Weather History for KSFO - November, 2013

Change the Weather History Date:

Tuesday, November 12, 2013

  Actual Average Record
Temperature  
Mean Temperature 64 °F 57 °F  
Max Temperature 70 °F 64 °F 74 °F (1986)
Min Temperature 57 °F 49 °F 38 °F (1985)
Degree Days  
Heating Degree Days 1 8  
Month to date heating degree days 66 87  
Since 1 July heating degree days 342 374  
Cooling Degree Days 0 0  
Month to date cooling degree days 0 0  
Year to date cooling degree days 164 163  
Growing Degree Days 14 (Base 50)    
Moisture  
Dew Point 50 °F    
Average Humidity 62    
Maximum Humidity 77    
Minimum Humidity 47    
Precipitation  
Precipitation T in 0.07 in 1.76 in (1984)
Month to date precipitation T 0.79  
Year to date precipitation 2.12 15.03  
Since 1 July precipitation 0.23  
Sea Level Pressure  
Sea Level Pressure 30.23 in    
Wind  
Wind Speed 7 mph (NW)    
Max Wind Speed 18 mph    
Max Gust Speed 22 mph    
Visibility 10 miles    
Events      
T = Trace of Precipitation, MM = Missing Value Source: NWS Daily Summary

Daily Weather History Graph

Daily Weather History Graph

Search for Another Location

Airport or City:

Trip Planner

Search our weather history database for the weather conditions in past years. The results will help you decide how hot, cold, wet, or windy it might be!

Date:

Astronomy

Nov. 12, 2013 Rise Set
Actual Time 6:46 AM PST 5:00 PM PST
Civil Twilight 6:18 AM PST 5:28 PM PST
Nautical Twilight 5:47 AM PST 5:59 PM PST
Astronomical Twilight 5:16 AM PST 6:30 PM PST
Moon 2:12 PM PST (11/12) 1:47 AM PST (11/12)
Length of Visible Light 11h 09m
Length of Day
10h 13m
Waxing Gibbous, 77% of the Moon is Illuminated
Nov 12
Waxing Gibbous
Nov 17
Full
Nov 25
Last Quarter
Dec 2
New
Dec 9
First Quarter

Hourly Weather History & Observations

Time (PST) Temp. Dew Point Humidity Pressure Visibility Wind Dir Wind Speed Gust Speed Precip Events Conditions
12:56 AM 59.0 °F 50.0 °F 72% 30.17 in 10.0 mi Calm Calm - N/A   Mostly Cloudy
1:56 AM 59.0 °F 46.0 °F 62% 30.19 in 10.0 mi NW 5.8 mph - N/A   Mostly Cloudy
2:56 AM 59.0 °F 46.0 °F 62% 30.19 in 10.0 mi WNW 3.5 mph - N/A   Mostly Cloudy
3:56 AM 57.9 °F 46.0 °F 65% 30.21 in 10.0 mi NW 3.5 mph - N/A   Mostly Cloudy
4:56 AM 57.9 °F 46.0 °F 65% 30.24 in 10.0 mi West 5.8 mph - N/A   Mostly Cloudy
5:56 AM 57.0 °F 46.0 °F 67% 30.23 in 10.0 mi Calm Calm - N/A   Mostly Cloudy
6:56 AM 57.9 °F 50.0 °F 75% 30.22 in 10.0 mi SE 8.1 mph - 0.00 in   Overcast
7:56 AM 59.0 °F 48.9 °F 69% 30.25 in 10.0 mi Calm Calm - N/A   Mostly Cloudy
8:56 AM 61.0 °F 50.0 °F 67% 30.26 in 10.0 mi Calm Calm - N/A   Mostly Cloudy
9:56 AM 63.0 °F 51.1 °F 65% 30.27 in 10.0 mi North 6.9 mph - N/A   Mostly Cloudy
10:56 AM 64.0 °F 53.1 °F 67% 30.27 in 10.0 mi NNE 6.9 mph - N/A   Mostly Cloudy
11:56 AM 63.0 °F 53.1 °F 70% 30.25 in 10.0 mi NE 5.8 mph - N/A   Mostly Cloudy
12:56 PM 64.0 °F 52.0 °F 65% 30.23 in 10.0 mi NNE 4.6 mph - N/A   Mostly Cloudy
1:56 PM 68.0 °F 48.0 °F 49% 30.22 in 10.0 mi North 3.5 mph - N/A   Mostly Cloudy
2:56 PM 68.0 °F 48.9 °F 50% 30.21 in 10.0 mi North 6.9 mph - N/A   Scattered Clouds
3:56 PM 70.0 °F 48.0 °F 46% 30.21 in 10.0 mi WNW 8.1 mph - N/A   Partly Cloudy
4:56 PM 64.9 °F 48.9 °F 56% 30.22 in 10.0 mi West 13.8 mph - N/A   Partly Cloudy
5:56 PM 63.0 °F 48.9 °F 60% 30.22 in 10.0 mi West 11.5 mph - N/A   Clear
6:56 PM 62.1 °F 50.0 °F 65% 30.24 in 10.0 mi WNW 10.4 mph - N/A   Clear
7:56 PM 61.0 °F 52.0 °F 72% 30.25 in 10.0 mi West 15.0 mph - N/A   Clear
8:56 PM 60.1 °F 51.1 °F 72% 30.25 in 10.0 mi West 9.2 mph - N/A   Clear
9:56 PM 60.1 °F 52.0 °F 75% 30.26 in 10.0 mi WNW 11.5 mph - N/A   Clear
10:56 PM 59.0 °F 52.0 °F 78% 30.26 in 10.0 mi WNW 11.5 mph - N/A   Partly Cloudy
11:56 PM 57.0 °F 52.0 °F 83% 30.26 in 10.0 mi WNW 6.9 mph - N/A   Partly Cloudy